Regional Weather Roundup
Issued by NWS

Home | Current Version | Previous Version | Graphics & Text | Print | Product List | Glossary On
Versions: 1 2 3 4 5 6 7 8 9 10 11 12 13 14 15 16 17 18 19 20 21 22 23 24 25 26 27 28 29 30 31 32 33 34 35 36 37 38 39 40 41 42 43 44 45 46 47 48 49 50
000
ASUS43 KLMK 311702
RWRKY
KENTUCKY REGIONAL WEATHER ROUNDUP
NATIONAL WEATHER SERVICE LOUISVILLE KY
100 PM EDT MON AUG 31 2015

NOTE "FAIR" INDICATES FEW OR NO CLOUDS BELOW 12,000 FEET
WITH NO SIGNIFICANT WEATHER AND/OR OBSTRUCTIONS TO VISIBILITY.

KYZ001>023-026-027-061>063-070>075-311800-
WESTERN AND SOUTH CENTRAL KENTUCKY

CITY           SKY/WX    TMP DP  RH WIND       PRES   REMARKS
PADUCAH        SUNNY     83  66  56 VRB6      30.12S
HENDERSON      MOSUNNY   84  68  58 W5        30.12S
OWENSBORO      MOSUNNY   85  69  58 S5        30.14S
HOPKINSVILLE   MOSUNNY   82  67  61 VRB3      30.14S
BOWLING GREEN  SUNNY     84  65  52 CALM      30.15F
GLASGOW        NOT AVBL
$$

KYZ024-025-028>034-038-045-046-053-311800-
NORTH CENTRAL KENTUCKY

CITY           SKY/WX    TMP DP  RH WIND       PRES   REMARKS
LOUISVILLE/SDF MOSUNNY   84  64  50 W7        30.13F
LOUISVILLE/LOU PTSUNNY   84  64  50 W6        30.15S
FORT KNOX      SUNNY     82  63  51 VRB1      30.13F
$$

KYZ035>037-039>044-047>052-055>060-089>105-311800-
NORTHEAST KENTUCKY

CITY           SKY/WX    TMP DP  RH WIND       PRES   REMARKS
LEXINGTON      MOSUNNY   83  65  54 N3        30.17S
COVINGTON      MOSUNNY   84  64  50 W7        30.14F
FRANKFORT      SUNNY     82  62  50 VRB3      30.15F
$$

KYZ054-064>069-076>088-106>120-311800-
SOUTHEAST KENTUCKY

CITY           SKY/WX    TMP DP  RH WIND       PRES   REMARKS
JACKSON        MOSUNNY   81  65  58 CALM      30.18F
LONDON         MOSUNNY   83  64  52 E6        30.17F
SOMERSET       NOT AVBL
MIDDLESBORO    MOSUNNY   81  64  56 N3        30.18S
MONTICELLO     MOSUNNY   83  68  60 CALM      30.19F
$$




USA.gov is the U.S. government's official web portal to all federal, state and local government web resources and services.